Theta_e
332 333 337 335 334 333 333 333 333 333 333 333 331 330 330 329 329 329 329 328 329 328 326 326 327 328 328 328 328 333 339 343 344 344 345 346 346 347 347 347 348 345 347
333 333 336 334 333 332 332 332 332 331 331 330 330 328 328 327 328 328 327 328 327 326 324 325 326 327 327 328 329 333 340 339 340 341 342 344 345 344 345 346 346 347 347
330 333 334 334 332 331 331 331 331 330 329 328 328 326 326 326 326 326 326 327 324 324 323 324 325 326 328 330 331 334 337 336 336 339 342 341 342 343 344 343 344 346 346
331 332 332 332 331 330 329 329 328 328 327 327 326 326 325 326 324 324 326 324 322 322 322 324 325 326 327 330 333 336 334 333 334 339 336 336 337 339 340 342 342 343 344
330 331 332 332 330 330 329 329 328 326 325 325 325 325 324 324 323 323 325 322 321 321 321 322 323 324 325 330 331 332 332 332 334 334 335 335 332 333 336 337 338 339 341
329 330 332 332 330 329 327 326 325 324 323 324 323 323 323 322 322 323 323 321 319 319 320 320 322 322 323 328 329 330 329 329 335 332 332 332 332 330 331 332 333 335 337
329 329 329 332 329 328 326 324 323 323 322 322 321 321 321 320 320 322 321 319 317 316 318 318 320 320 320 326 327 327 327 329 329 329 330 329 328 326 327 328 329 330 333
330 331 331 330 329 326 325 323 321 321 322 321 319 319 319 318 316 317 318 316 316 314 316 317 318 318 319 324 324 324 323 326 329 328 328 329 325 324 324 324 325 326 328
333 332 332 330 328 325 323 322 320 320 319 319 319 317 318 316 314 315 315 315 315 315 316 316 317 316 316 319 320 321 322 322 326 326 323 326 322 323 323 321 321 323 324
331 331 331 330 327 327 325 321 320 319 319 317 319 316 317 316 314 313 314 314 315 315 315 315 316 315 314 314 313 315 318 318 322 324 323 321 319 319 320 321 319 320 321
327 328 330 328 328 328 325 322 320 319 318 315 316 315 316 320 317 315 313 312 314 314 314 313 311 310 312 312 311 308 310 319 321 321 319 314 314 315 315 316 319 319 319
323 325 327 328 328 327 325 326 323 322 322 320 318 319 318 319 319 315 313 310 310 312 313 313 310 308 310 313 311 309 313 316 318 319 316 311 312 313 314 313 314 318 317
323 325 327 328 329 326 325 324 321 320 321 318 319 319 318 316 316 316 317 315 317 313 316 315 314 315 312 314 313 313 312 313 315 316 312 308 309 310 312 312 312 314 319
322 323 324 324 328 326 324 322 321 317 318 317 316 319 318 316 317 317 317 318 318 316 317 315 316 318 316 314 314 314 313 313 313 313 311 309 308 308 309 311 311 312 313
321 321 318 323 322 321 322 321 320 317 315 317 317 318 318 317 318 318 317 317 317 318 316 316 315 315 315 314 314 313 312 313 313 311 312 306 308 308 308 310 310 311 312
319 318 319 320 320 322 321 321 321 320 317 317 318 319 321 320 320 320 319 318 317 317 317 316 316 315 314 314 313 313 312 312 312 311 311 311 306 308 309 309 309 309 310
323 324 324 322 323 321 320 322 321 321 320 320 319 321 321 322 322 322 320 320 319 319 319 317 317 316 315 314 313 313 312 312 311 311 310 311 311 307 307 307 308 308 309
319 321 322 321 319 319 322 323 319 321 321 320 321 322 322 322 323 322 320 320 321 320 318 317 315 314 314 314 313 313 313 312 312 311 311 311 310 310 308 308 307 307 307
315 318 322 319 317 318 322 322 323 323 321 320 320 320 321 321 322 321 319 319 321 320 320 317 315 314 312 311 311 312 313 313 312 311 311 311 311 310 309 309 307 307 307
316 318 319 321 321 322 321 322 321 319 318 319 318 319 319 317 320 320 318 318 316 315 311 310 308 307 307 310 306 307 311 313 312 312 311 311 311 311 311 310 310 310 307
316 318 318 317 320 320 318 316 315 315 316 317 318 319 320 320 320 319 319 318 319 317 316 314 315 314 310 312 309 305 304 309 312 312 311 311 310 310 310 310 310 310 309
316 317 317 318 318 318 317 317 317 317 317 316 317 318 320 320 319 318 317 315 315 314 315 317 317 314 314 315 308 307 303 305 307 311 311 310 311 310 309 309 310 309 310
313 315 315 316 316 317 318 317 317 316 315 314 313 314 314 314 313 312 312 312 312 312 311 315 316 314 313 313 313 309 302 299 304 308 310 310 310 308 309 309 309 309 310
311 312 311 310 310 309 310 309 308 305 304 305 306 307 307 309 308 308 308 308 309 309 310 311 314 314 312 309 306 313 311 307 301 299 305 306 307 307 308 307 308 308 309
307 307 308 308 307 307 308 307 305 304 304 304 304 304 305 306 306 305 305 305 305 305 306 308 310 311 312 310 307 305 306 306 307 303 298 300 305 306 306 307 307 308 308
305 306 306 306 305 306 306 305 305 304 301 300 301 301 302 303 303 304 303 303 304 303 304 304 306 308 309 309 307 304 303 302 303 302 301 302 302 304 305 306 307 307 308
Wind_Speed
12 11 14 14 14 13 12 12 12 15 13 14 12 11 11 12 12 12 12 12 12 13 12 11 11 10 10 9 8 8 10 14 13 13 13 14 14 14 12 13 3 13 10
12 12 14 14 14 13 12 12 12 14 13 13 12 11 10 11 11 12 12 12 13 12 12 11 10 10 10 9 8 8 12 14 13 11 10 15 16 15 15 15 17 13 12
10 12 14 14 14 13 12 13 12 14 13 12 10 11 10 10 12 10 10 13 12 11 11 11 10 11 11 10 9 10 14 13 12 10 9 9 13 17 17 16 16 14 14
12 10 13 15 14 12 11 11 11 13 11 12 9 11 9 10 10 9 11 12 12 12 12 12 12 11 12 11 11 13 14 14 11 3 8 9 11 17 17 17 18 18 13
11 11 13 15 13 13 11 12 12 12 10 10 9 10 9 9 9 8 12 11 11 12 12 12 11 12 12 11 12 12 12 12 9 9 9 11 10 14 16 16 14 16 17
11 11 13 14 14 13 11 11 10 11 9 9 9 8 9 9 8 8 12 10 10 11 11 11 11 12 12 10 11 12 9 4 8 9 10 10 12 13 15 16 15 15 16
12 11 12 13 14 13 13 10 8 8 9 8 7 8 8 8 7 8 10 9 10 10 10 10 11 11 12 11 11 11 9 8 6 7 9 10 11 13 15 15 15 15 15
12 11 12 14 15 12 13 9 5 6 6 8 6 7 8 8 7 7 8 9 9 9 9 10 10 11 12 12 12 11 9 6 5 6 7 9 11 12 13 13 14 15 15
10 9 8 10 11 11 11 10 5 4 4 4 5 4 7 7 7 7 7 8 9 9 9 10 10 12 12 12 11 11 8 8 5 5 4 7 10 11 12 12 12 13 13
7 7 6 7 7 8 9 8 5 4 5 3 5 5 6 7 6 6 8 8 9 8 8 9 10 11 11 11 10 8 4 3 5 3 4 9 8 10 12 11 11 11 11
5 5 4 4 4 3 5 7 7 5 3 4 6 5 6 3 5 6 9 6 7 7 6 7 7 6 6 9 7 4 7 3 1 2 5 7 7 8 10 10 10 9 10
5 4 4 4 3 3 1 1 3 3 6 4 5 6 4 3 1 3 4 3 4 4 4 4 3 2 9 2 5 7 2 2 2 1 7 5 6 7 8 9 8 8 8
3 3 3 3 1 4 3 2 2 2 3 4 5 5 3 3 4 5 3 6 5 7 6 7 7 2 4 3 3 3 3 2 1 0 9 4 4 5 6 7 8 6 7
1 1 1 2 0 3 5 3 3 4 3 4 5 6 4 5 4 4 4 3 4 4 3 4 3 1 1 0 2 1 1 2 1 1 6 3 3 4 5 6 7 7 5
3 2 4 2 2 0 4 5 4 4 4 4 5 6 6 6 5 5 4 5 4 4 4 4 4 5 4 4 4 3 2 1 2 3 3 4 2 4 4 5 5 6 7
4 5 7 7 5 5 5 7 5 5 5 6 6 6 8 7 6 6 6 7 7 6 6 6 6 6 6 5 6 6 5 3 3 3 3 4 4 4 4 4 4 5 6
8 7 8 7 6 7 7 8 7 6 6 7 7 9 10 10 10 10 8 8 8 7 8 7 7 7 7 6 7 6 6 6 5 5 5 5 6 11 6 4 4 6 5
5 5 4 5 6 6 9 8 5 8 8 8 8 8 11 12 13 12 10 10 10 9 8 9 8 8 8 8 7 7 7 6 6 6 6 5 5 5 10 9 5 5 5
7 3 6 8 8 10 12 9 10 11 10 9 9 9 11 12 14 12 10 11 12 10 10 9 9 8 7 8 9 8 8 8 7 8 7 7 6 6 6 9 8 6 6
7 5 5 7 9 12 7 8 9 10 9 9 10 9 11 9 14 12 11 12 8 9 6 5 8 6 7 10 7 6 10 9 8 8 8 8 7 7 8 8 6 8 11
7 7 7 7 8 8 9 8 9 10 10 10 10 13 15 14 15 15 11 13 12 13 14 14 15 16 11 12 9 8 7 6 11 10 9 8 9 8 8 7 6 5 6
10 10 10 12 12 11 9 9 10 10 12 12 12 14 16 16 15 13 14 13 14 13 16 16 16 13 14 12 11 12 8 10 9 11 11 10 11 8 9 10 10 9 8
8 9 10 11 12 11 11 10 10 11 11 11 12 12 12 11 11 12 13 12 13 13 13 14 15 19 13 12 18 10 7 9 11 9 12 10 10 8 9 9 11 11 11
8 8 8 9 10 9 8 9 12 11 13 12 12 12 11 12 13 12 11 11 11 11 14 13 13 14 14 14 4 13 14 9 7 7 7 8 8 9 9 7 7 9 11
8 8 8 9 10 10 10 10 10 13 12 11 11 13 13 11 11 10 9 10 10 10 12 14 14 15 12 12 12 6 11 12 12 10 11 8 7 7 7 8 5 6 9
10 11 10 11 12 12 11 12 12 12 12 11 12 12 12 11 10 12 11 11 12 12 13 12 14 16 14 15 13 5 10 10 10 10 11 12 12 8 9 8 6 6 7
Wind_Direction
115 130 123 115 108 99 89 88 88 90 91 92 89 86 84 80 80 80 78 76 72 65 63 64 66 64 56 51 50 61 54 62 69 70 71 65 60 65 59 35 107 82 71
130 131 122 115 112 110 112 103 95 96 93 93 95 91 87 87 81 77 80 76 67 63 59 57 61 62 58 54 67 82 67 69 66 60 84 77 59 57 56 49 41 66 64
132 131 125 117 113 110 109 106 105 105 103 91 90 96 88 83 76 74 81 73 66 61 59 62 62 58 54 58 91 94 77 72 68 57 57 69 63 45 52 57 56 55 64
126 134 119 113 108 106 100 97 100 95 94 94 97 90 93 85 82 77 74 72 62 55 53 53 58 56 53 62 94 88 84 79 65 59 71 57 58 44 41 45 47 44 55
119 113 116 113 112 110 106 104 98 94 90 99 97 93 90 91 86 89 79 73 63 57 54 54 59 51 49 67 81 86 87 92 79 73 62 61 59 45 42 39 46 48 41
118 117 120 119 118 112 107 96 95 97 103 93 89 93 96 91 92 95 86 75 67 59 58 60 65 59 52 72 84 86 85 116 180 87 78 72 59 49 46 39 38 43 42
126 131 134 124 124 125 113 100 108 114 117 105 108 103 101 96 91 81 86 82 74 65 62 65 65 64 62 72 69 69 61 17 90 112 113 87 60 49 46 39 35 35 37
142 147 144 136 134 129 120 118 126 136 100 125 122 120 116 107 99 94 91 85 81 76 71 69 68 68 64 73 70 64 45 348 120 85 80 82 51 51 48 42 37 32 30
145 152 147 139 134 128 126 126 138 111 127 105 122 127 125 108 102 100 100 91 89 90 76 74 77 76 72 65 63 62 48 12 66 75 77 79 42 41 42 42 39 34 29
150 153 156 146 159 154 141 128 135 140 151 150 136 148 131 118 105 103 129 94 95 93 86 82 82 80 78 71 61 60 57 264 73 101 77 64 39 35 31 32 29 31 28
154 148 141 139 144 117 120 128 161 165 169 173 173 155 191 159 138 169 70 104 101 99 93 93 89 82 101 95 74 47 269 40 158 68 74 53 39 31 28 22 15 24 27
144 147 163 162 145 151 147 198 182 170 200 195 197 174 212 168 115 346 103 121 133 130 118 105 105 203 241 88 124 199 61 55 254 20 73 54 38 29 27 18 10 3 16
113 164 197 144 178 285 51 325 238 211 198 185 213 224 198 221 191 216 187 183 182 181 198 194 182 209 42 358 61 40 78 226 68 255 89 57 32 16 19 9 7 351 360
277 161 169 8 279 344 324 304 315 264 216 229 207 213 238 230 214 250 239 213 216 208 187 224 180 98 177 27 6 97 51 323 17 329 117 97 348 346 352 352 354 351 324
309 106 353 294 237 87 318 316 277 278 237 244 228 214 242 247 238 244 242 251 252 233 222 225 221 214 205 215 225 244 233 246 273 289 298 123 306 305 318 336 339 340 333
233 208 199 212 215 229 225 253 261 244 247 238 241 236 228 252 252 254 237 240 241 235 235 234 224 223 222 225 215 235 241 256 241 290 261 169 191 267 293 308 321 323 324
255 233 221 223 237 241 242 237 252 266 252 250 247 235 237 238 241 253 254 250 247 236 239 241 239 238 241 219 238 215 235 235 241 236 254 254 188 198 223 258 295 312 300
336 289 187 211 239 280 259 250 252 260 254 254 250 243 238 242 244 248 248 252 251 242 238 234 231 234 237 236 235 234 227 235 227 235 244 255 247 274 185 203 233 284 296
33 35 218 220 218 223 242 245 243 254 256 264 251 249 245 246 249 248 256 252 249 248 249 247 238 247 253 243 246 250 243 246 230 234 240 235 240 260 265 167 196 235 263
1 326 265 220 232 237 259 244 250 255 257 257 261 252 262 250 247 245 247 252 247 244 223 216 217 207 229 233 246 268 257 243 242 244 241 240 241 241 249 257 235 214 203
300 290 287 275 256 252 265 261 263 261 264 262 256 257 255 267 263 254 246 247 242 240 233 218 223 237 209 230 220 223 250 268 247 247 241 241 244 236 242 240 246 250 203
285 282 277 278 279 276 268 267 272 284 284 289 288 283 280 276 264 260 259 257 259 252 249 247 245 233 230 216 218 234 230 224 246 229 245 237 241 248 238 229 252 255 254
292 293 291 293 289 286 293 288 276 270 263 261 261 261 259 261 270 269 267 268 268 262 261 254 248 237 236 225 214 225 210 222 224 204 213 238 238 234 242 248 251 249 247
319 324 310 312 303 293 300 286 284 284 286 287 294 289 291 283 273 268 265 263 262 266 269 259 259 247 239 238 214 241 241 254 258 216 205 203 232 238 237 249 253 244 240
334 328 320 316 302 307 302 292 292 287 292 297 294 284 275 273 263 264 267 273 273 267 262 264 255 253 247 245 234 195 237 236 234 247 251 186 200 226 230 227 260 238 227
348 342 328 318 317 319 315 308 304 307 311 301 294 293 283 278 271 268 267 265 271 269 265 260 260 257 248 243 235 212 232 226 222 221 235 251 261 196 212 235 225 231 228